Location: Klein M�hlingen
(51.9472°N, 11.7453°E)
Time: 06:22:51
(UTC+00:00)

ISS - Pass Details

Date: 02 October 2021
Orbit: 417 x 423 km, 51.6° (Epoch: 27 October)

Event Time Altitude Azimuth Distance (km) Brightness Sun altitude
Rises 19:06:17 0° 279° (W) 2,367 1.4 -21.7°
Reaches altitude 10° 19:09:04 10° 254° (WSW) 1,500 -0.3 -22.1°
Maximum altitude 19:10:58 14° 220° (SW) 1,259 -1.2 -22.4°
Enters shadow 19:11:11 14° 215° (SW) 1,261 -1.2 -22.4°
